Miscellaneous Local Product
Issued by NWS Hastings, NE

Home | Current Version | Previous Version | Graphics & Text | Print | Product List | Glossary On
Versions: 1 2 3 4 5 6 7 8 9 10 11 12 13 14 15 16 17 18 19 20 21 22 23 24 25 26 27 28 29 30 31 32 33 34 35 36 37 38 39 40 41 42 43 44 45 46 47 48 49 50
000
AXUS43 KGID 251602
MISGRI

GID CWA HOURLY WEATHER ROUNDUP
NATIONAL WEATHER SERVICE HASTINGS NE
1100 AM CDT SAT OCT 25 2014

NOTE: "FAIR" INDICATES FEW OR NO CLOUDS BELOW 12,000 FEET WITH NO
SIGNIFICANT WEATHER AND/OR OBSTRUCTIONS TO VISIBILITY.

...SOUTH CENTRAL NEBRASKA...

CITY           SKY/WX    TMP DP  RH WIND       PRES   REMARKS
GRAND ISLAND   SUNNY     59  44  57 E8        30.14S
HASTINGS       SUNNY     62  43  49 E8        30.12S
KEARNEY        SUNNY     61  45  55 NE10      30.14R
ORD            SUNNY     61  42  49 E7        30.14R
YORK           SUNNY     59  48  67 E9        30.13S
AURORA         SUNNY     62  44  51 NE7       30.13R
LEXINGTON      SUNNY     62  45  54 E7        30.13S
HOLDREGE       SUNNY     61  46  57 CALM      30.13R
HEBRON         SUNNY     64  49  59 NE5       30.11S

...NEBRASKA PANHANDLE...

CITY           SKY/WX    TMP DP  RH WIND       PRES   REMARKS
CHADRON        SUNNY     46  38  73 CALM      30.18F
ALLIANCE       SUNNY     52  36  54 CALM      30.18S
SCOTTSBLUFF    SUNNY     55  32  41 CALM      30.19S
SIDNEY         SUNNY     58  36  43 NW8       30.19S

...WESTERN AND NORTH CENTRAL NEBRASKA...

CITY           SKY/WX    TMP DP  RH WIND       PRES   REMARKS
VALENTINE      SUNNY     55  34  45 SE6       30.19R
AINSWORTH      SUNNY     57  35  43 E10       30.18S
ONEILL         SUNNY     61  38  43 NE9       30.17R
BROKEN BOW     SUNNY     62  42  47 E9        30.15R
IMPERIAL         N/A     60  37  42 N7        30.15S
NORTH PLATTE   SUNNY     56  43  61 CALM      30.15S
MCCOOK         SUNNY     58  45  62 E5        30.13S

...EASTERN NEBRASKA...

CITY           SKY/WX    TMP DP  RH WIND       PRES   REMARKS
NORFOLK        SUNNY     61  42  49 E7        30.14R
SO SIOUX CITY  SUNNY     60  46  59 N3        30.14S
TEKAMAH        SUNNY     62  46  55 N6        30.13S
COLUMBUS       SUNNY     63  43  48 E10       30.15S
ALBION         SUNNY     61  40  45 E8        30.15R
OMAHA EPPLEY   MOSUNNY   60  49  66 N3        30.12F
OFFUTT AFB     SUNNY     62  55  77 NE3       30.11F
MILLARD        SUNNY     62  45  54 CALM      30.12S
LINCOLN        SUNNY     63  46  54 E8        30.13S
NEBRASKA CITY  SUNNY     63  43  47 E8        30.11S
BEATRICE       SUNNY     65  51  61 NE6       30.11R
FALLS CITY     SUNNY     68  53  58 NE7       30.09S

...NORTHERN KANSAS...

CITY           SKY/WX    TMP DP  RH WIND       PRES   REMARKS
GOODLAND       SUNNY     65  33  30 NW10      30.16F
HILL CITY      SUNNY     64  47  53 NE5       30.11R
NORTON         SUNNY     64  46  52 E8        30.10S
PHILLIPSBURG   SUNNY     66  55  68 NE8       30.10S HAZE
SMITH CENTER   SUNNY     66  54  63 NE10      30.10S
BELOIT         SUNNY     66  57  72 NE6       30.08S
HAYS           SUNNY     64  48  55 CALM      30.09S
RUSSELL        SUNNY     68  56  65 SW3       30.07S
CONCORDIA      SUNNY     65  59  81 E6        30.09S
SALINA         SUNNY     68  61  78 SE5       30.07S
TOPEKA         PTSUNNY   62  62 100 CALM      30.09S FOG



USA.gov is the U.S. government's official web portal to all federal, state and local government web resources and services.